1491609601.05,58711,9.63,72890.8,-6.75,-7.39,-7.31,0,*56
1491609602.32,58712,9.63,72886.5,-6.75,-7.31,-7.31,0,*5D
1491609603.6,58713,9.63,72888.3,-6.75,-7.31,-7.31,0,*5C
1491609604.87,58714,9.63,72888.3,-6.75,-7.43,-7.31,0,*5E
1491609606.12,58715,9.63,72890.5,-6.77,-7.39,-7.31,0,*50
1491609607.39,58716,9.63,72884.3,-6.75,-7.39,-7.39,0,*59
1491609608.66,58717,9.63,72888.5,-6.75,-7.31,-7.39,0,*50
1491609609.93,58718,9.63,72890.3,-6.75,-7.39,-7.39,0,*57
1491609611.21,58719,9.63,72896.5,-6.75,-7.31,-7.31,0,*56
1491609612.48,58720,9.63,72896.8,-6.75,-7.39,-7.31,0,*54
1491609613.75,58721,9.63,72910.5,-6.75,-7.39,-7.31,0,*55
1491609615.02,58722,9.63,72912.0,-6.75,-7.39,-7.39,0,*5E
1491609616.29,58723,9.63,72908.8,-6.75,-7.43,-7.39,0,*52
1491609617.57,58724,9.63,72914.5,-6.75,-7.43,-7.39,0,*55
1491609618.85,58725,9.63,72918.0,-6.75,-7.39,-7.43,0,*54
1491609620.09,58726,9.63,72920.3,-6.77,-7.39,-7.43,0,*55
1491609621.36,58727,9.63,72924.8,-6.75,-7.39,-7.39,0,*5B
1491609622.64,58728,9.63,72926.5,-6.75,-7.39,-7.39,0,*54
1491609623.91,58729,9.63,72926.3,-6.75,-7.39,-7.39,0,*55
1491609625.18,58730,9.63,72924.5,-6.75,-7.39,-7.39,0,*5D
1491609626.45,58731,9.63,72918.8,-6.75,-7.31,-7.39,0,*54
1491609627.72,58732,9.63,72916.0,-6.75,-7.39,-7.39,0,*5F
1491609628.99,58733,9.63,72922.8,-6.75,-7.39,-7.27,0,*51
1491609630.24,58734,9.63,72918.8,-6.77,-7.31,-7.39,0,*53
1491609631.51,58735,9.63,72916.3,-6.75,-7.31,-7.39,0,*50
1491609632.79,58736,9.63,72916.0,-6.75,-7.27,-7.31,0,*5C
1491609634.06,58737,9.63,72920.3,-6.75,-7.39,-7.31,0,*52
1491609635.33,58738,9.63,72922.8,-6.75,-7.39,-7.31,0,*5D
1491609636.6,58739,9.63,72930.0,-6.75,-7.39,-7.27,0,*5B
1491609637.87,58740,9.63,72938.0,-6.75,-7.39,-7.39,0,*5A
1491609639.11,58741,9.63,72942.5,-6.77,-7.39,-7.39,0,*59
1491609640.38,58742,9.63,72934.8,-6.75,-7.39,-7.39,0,*58
1491609641.66,58743,9.63,72932.0,-6.75,-7.43,-7.43,0,*59
1491609642.91,58744,9.63,72922.8,-6.77,-7.39,-7.39,0,*5C
1491609644.18,58745,9.63,72916.5,-6.75,-7.39,-7.39,0,*5F
1491609645.45,58746,9.63,72908.8,-6.75,-7.43,-7.39,0,*51
1491609646.72,58747,9.63,72904.8,-6.75,-7.39,-7.39,0,*5D
1491609648.0,58748,9.63,72902.3,-6.75,-7.39,-7.43,0,*5F
1491609649.27,58749,9.63,72900.0,-6.75,-7.39,-7.39,0,*53
1491609650.54,58750,9.63,72898.5,-6.75,-7.39,-7.39,0,*5B
1491609651.81,58751,9.69,72902.8,-6.75,-7.31,-7.39,0,*52
1491609653.09,58752,9.63,72916.8,-6.75,-7.31,-7.31,0,*59
1491609654.36,58753,9.63,72928.8,-6.75,-7.27,-7.39,0,*57
1491609655.63,58754,9.63,72934.8,-6.75,-7.39,-7.31,0,*57
1491609656.91,58755,9.63,72940.3,-6.75,-7.43,-7.39,0,*53
1491609658.18,58756,9.63,72936.5,-6.75,-7.39,-7.39,0,*5D
1491609659.43,58757,9.63,72938.0,-6.73,-7.35,-7.35,0,*5A
1491609660.69,58758,9.63,72928.5,-6.73,-7.35,-7.35,0,*55
1491609661.96,58759,9.63,72924.8,-6.75,-7.43,-7.39,0,*5F
1491609663.23,58760,9.63,72924.8,-6.75,-7.39,-7.39,0,*58
1491609664.51,58761,9.63,72922.5,-6.75,-7.39,-7.27,0,*56
1491609665.78,58762,9.63,72920.5,-6.75,-7.39,-7.31,0,*52
1491609667.05,58763,9.63,72916.8,-6.75,-7.43,-7.31,0,*5E
1491609668.3,58764,9.69,72920.8,-6.73,-7.39,-7.27,0,*55
1491609669.57,58765,9.63,72924.8,-6.75,-7.39,-7.31,0,*55
1491609670.85,58766,9.63,72926.5,-6.75,-7.43,-7.39,0,*53
1491609672.12,58767,9.63,72922.8,-6.75,-7.39,-7.39,0,*5F
1491609673.37,58768,9.63,72922.8,-6.73,-7.39,-7.35,0,*5A
1491609674.64,58769,9.63,72934.5,-6.75,-7.39,-7.39,0,*51
1491609675.91,58770,9.63,72930.5,-6.75,-7.43,-7.39,0,*54
1491609677.18,58771,9.63,72928.3,-6.75,-7.39,-7.39,0,*58
1491609678.46,58772,9.63,72930.3,-6.75,-7.31,-7.39,0,*53
1491609679.73,58773,9.63,72932.0,-6.75,-7.39,-7.39,0,*5A
1491609681.0,58774,9.63,72924.3,-6.75,-7.39,-7.43,0,*50
1491609682.26,58775,9.63,72920.3,-6.73,-7.35,-7.35,0,*5A
1491609683.53,58776,9.63,72930.8,-6.75,-7.39,-7.39,0,*5F
1491609684.8,58777,9.63,72934.5,-6.75,-7.31,-7.39,0,*56
1491609686.07,58778,9.63,72934.3,-6.75,-7.39,-7.39,0,*51
1491609687.32,58779,9.63,72938.8,-6.69,-7.35,-7.35,0,*5D
1491609688.57,58780,9.63,72942.8,-6.73,-7.27,-7.27,0,*50
1491609689.82,58781,9.63,72938.3,-6.73,-7.27,-7.27,0,*51
1491609691.07,58782,9.63,72938.3,-6.73,-7.27,-7.27,0,*52
1491609692.32,58783,9.63,72934.5,-6.73,-7.27,-7.35,0,*50
1491609693.57,58784,9.63,72928.5,-6.73,-7.27,-7.35,0,*57
1491609694.82,58785,9.63,72920.5,-6.73,-7.27,-7.35,0,*56
1491609696.08,58786,9.63,72922.0,-6.73,-7.35,-7.35,0,*56
1491609697.33,58787,9.63,72922.8,-6.73,-7.35,-7.35,0,*57
1491609698.6,58788,9.63,72938.0,-6.75,-7.39,-7.39,0,*5E
1491609699.88,58789,9.63,72940.0,-6.75,-7.43,-7.39,0,*52
1491609701.15,58790,9.63,72940.8,-6.75,-7.39,-7.43,0,*5A
1491609702.37,58791,9.63,72934.0,-6.75,-7.53,-7.53,0,*56
1491609703.6,58792,9.63,72934.0,-6.77,-7.53,-7.57,0,*53
1491609704.79,58793,9.63,72926.5,-6.73,-7.49,-7.53,0,*59
1491609705.99,58794,9.63,72920.0,-6.69,-7.53,-7.53,0,*5E
1491609707.27,58795,9.63,72924.0,-6.75,-7.57,-7.57,0,*52
1491609708.55,58796,9.63,72916.5,-6.75,-7.57,-7.57,0,*51
1491609709.84,58797,9.63,72914.5,-6.75,-7.57,-7.57,0,*50
1491609711.06,58798,9.63,72918.3,-6.73,-7.53,-7.65,0,*5C
1491609712.35,58799,9.63,72916.8,-6.75,-7.57,-7.61,0,*5B
1491609713.63,58800,9.63,72916.0,-6.75,-7.61,-7.61,0,*51
1491609714.91,58801,9.63,72916.3,-6.75,-7.61,-7.61,0,*50
1491609716.17,58802,9.63,72912.3,-6.77,-7.57,-7.57,0,*51
1491609717.42,58803,9.69,72906.8,-6.77,-7.57,-7.57,0,*50
1491609718.68,58804,9.63,72904.5,-6.77,-7.57,-7.57,0,*57
1491609719.93,58805,9.63,72888.5,-6.77,-7.57,-7.57,0,*56
1491609721.22,58806,9.63,72896.0,-6.75,-7.57,-7.57,0,*57
1491609722.41,58807,9.63,72892.8,-6.77,-7.53,-7.53,0,*54
1491609723.6,58808,9.63,72888.0,-6.77,-7.53,-7.53,0,*5B
1491609724.8,58809,9.63,72880.3,-6.77,-7.53,-7.53,0,*5A
1491609726.02,58810,9.63,72882.0,-6.75,-7.53,-7.53,0,*50
1491609727.27,58811,9.63,72884.5,-6.77,-7.57,-7.57,0,*53
1491609728.5,58812,9.63,72884.8,-6.77,-7.53,-7.57,0,*54
1491609729.72,58813,9.63,72880.8,-6.77,-7.57,-7.53,0,*55
1491609730.94,58814,9.63,72880.3,-6.75,-7.53,-7.53,0,*54
1491609732.14,58815,9.63,72838.8,-6.77,-7.53,-7.53,0,*57
1491609733.39,58816,9.63,72840.3,-6.75,-7.53,-7.57,0,*52
1491609734.58,58817,9.63,72840.0,-6.77,-7.53,-7.53,0,*55
1491609735.81,58818,9.63,72842.5,-6.77,-7.57,-7.53,0,*5E
1491609737.0,58819,9.69,72870.8,-6.77,-7.53,-7.53,0,*5B
1491609738.25,58820,9.63,72888.5,-6.75,-7.53,-7.57,0,*57
1491609739.45,58821,9.63,72892.8,-6.77,-7.53,-7.53,0,*50
1491609740.69,58822,9.63,72900.5,-6.77,-7.39,-7.43,0,*5E
1491609741.94,58823,9.63,72902.5,-6.77,-7.39,-7.43,0,*5F
1491609743.22,58824,9.63,72898.0,-6.75,-7.43,-7.43,0,*57
1491609744.48,58825,9.63,72904.0,-6.77,-7.43,-7.43,0,*54
1491609745.75,58826,9.63,72908.3,-6.75,-7.43,-7.39,0,*58
1491609747.04,58827,9.63,72918.5,-6.75,-7.43,-7.43,0,*54
1491609748.31,58828,9.63,72920.3,-6.75,-7.39,-7.39,0,*5B
1491609749.56,58829,9.63,72932.3,-6.77,-7.43,-7.39,0,*55
1491609750.81,58830,9.63,72920.8,-6.77,-7.43,-7.39,0,*5D
1491609752.09,58831,9.63,72904.8,-6.75,-7.43,-7.43,0,*53
1491609753.31,58832,9.63,72912.5,-6.75,-7.53,-7.53,0,*50
1491609754.56,58833,9.63,72918.8,-6.77,-7.57,-7.57,0,*53
1491609755.79,58834,9.63,72918.8,-6.77,-7.57,-7.53,0,*50
1491609757.07,58835,9.63,72916.0,-6.75,-7.57,-7.57,0,*57
1491609758.36,58836,9.63,72908.3,-6.75,-7.57,-7.57,0,*54
1491609759.61,58837,9.63,72898.8,-6.77,-7.57,-7.57,0,*57
1491609760.87,58838,9.63,72902.5,-6.77,-7.57,-7.57,0,*58
1491609762.12,58839,9.63,72896.3,-6.77,-7.57,-7.61,0,*5C
1491609763.38,58840,9.63,72906.5,-6.77,-7.57,-7.61,0,*52
1491609764.64,58841,9.63,72902.5,-6.77,-7.57,-7.61,0,*53
1491609765.9,58842,9.63,72872.5,-6.77,-7.57,-7.61,0,*50
1491609767.15,58843,9.63,72872.8,-6.77,-7.57,-7.61,0,*51
1491609768.41,58844,9.63,72880.0,-6.77,-7.57,-7.61,0,*56
1491609769.67,58845,9.63,72890.5,-6.77,-7.57,-7.57,0,*52
1491609770.95,58846,9.63,72888.3,-6.79,-7.61,-7.61,0,*5F
1491609772.23,58847,9.63,72898.0,-6.79,-7.61,-7.57,0,*5B
1491609773.51,58848,9.63,72916.3,-6.79,-7.57,-7.57,0,*51
1491609774.76,58849,9.63,72916.3,-6.79,-7.57,-7.49,0,*5F
1491609776.02,58850,9.63,72916.5,-6.75,-7.57,-7.53,0,*50
1491609777.24,58851,9.63,72912.0,-6.77,-7.53,-7.43,0,*56
1491609778.49,58852,9.63,72906.5,-6.79,-7.43,-7.49,0,*50
1491609779.74,58853,9.69,72906.0,-6.77,-7.39,-7.39,0,*55
1491609780.98,58854,9.63,72904.3,-6.77,-7.31,-7.39,0,*5A
1491609782.26,58855,9.63,72900.5,-6.75,-7.43,-7.57,0,*54
1491609783.51,58856,9.63,72900.5,-6.77,-7.39,-7.39,0,*50
1491609784.76,58857,9.63,72926.0,-6.75,-7.53,-7.43,0,*52
1491609785.99,58858,9.63,72930.3,-6.77,-7.53,-7.43,0,*5F
1491609787.21,58859,9.63,72942.0,-6.77,-7.53,-7.43,0,*5E
1491609788.47,58860,9.63,72938.0,-6.77,-7.43,-7.43,0,*55
1491609789.72,58861,9.63,72940.8,-6.77,-7.43,-7.39,0,*59
1491609790.97,58862,9.63,72936.0,-6.77,-7.43,-7.43,0,*57
1491609792.2,58863,9.69,72936.3,-6.77,-7.53,-7.43,0,*57
1491609793.42,58864,9.69,72932.8,-6.77,-7.57,-7.53,0,*55
1491609794.65,58865,9.69,72924.5,-6.77,-7.57,-7.53,0,*54
1491609795.87,58866,9.69,72920.3,-6.77,-7.57,-7.53,0,*57
1491609797.1,58867,9.63,72912.3,-6.77,-7.53,-7.57,0,*56
1491609798.32,58868,9.63,72908.0,-6.77,-7.53,-7.57,0,*59
1491609799.55,58869,9.63,72904.8,-6.77,-7.53,-7.57,0,*58
1491609800.77,58870,9.69,72906.5,-6.77,-7.53,-7.57,0,*50
1491609802.05,58871,9.69,72910.5,-6.79,-7.61,-7.61,0,*5B
1491609803.28,58872,9.69,72908.5,-6.77,-7.57,-7.53,0,*52
1491609804.53,58873,9.63,72908.8,-6.75,-7.57,-7.53,0,*51
1491609805.72,58874,9.69,72908.8,-6.77,-7.53,-7.53,0,*50
1491609806.95,58875,9.63,72906.8,-6.77,-7.57,-7.53,0,*55
1491609808.14,58876,9.63,72904.3,-6.77,-7.53,-7.53,0,*52
1491609809.36,58877,9.63,72908.3,-6.75,-7.53,-7.53,0,*51
1491609810.62,58878,9.63,72910.0,-6.77,-7.43,-7.43,0,*5C
1491609811.84,58879,9.63,72908.8,-6.77,-7.53,-7.39,0,*51
1491609813.07,58880,9.69,72908.3,-6.77,-7.53,-7.43,0,*5A
1491609814.35,58881,9.63,72906.5,-6.79,-7.57,-7.57,0,*54
1491609815.58,58882,9.63,72906.5,-6.77,-7.53,-7.43,0,*58
1491609816.8,58883,9.63,72910.5,-6.75,-7.53,-7.53,0,*5A
1491609818.05,58884,9.63,72908.5,-6.77,-7.57,-7.57,0,*5F
1491609819.31,58885,9.63,72908.0,-6.77,-7.57,-7.57,0,*5E
1491609820.53,58886,9.69,72914.3,-6.77,-7.57,-7.53,0,*59
1491609821.78,58887,9.69,72908.8,-6.75,-7.53,-7.57,0,*5A
1491609823.04,58888,9.63,72906.5,-6.79,-7.57,-7.49,0,*52
1491609824.29,58889,9.63,72908.3,-6.79,-7.57,-7.49,0,*53
1491609825.55,58890,9.63,72910.8,-6.77,-7.43,-7.43,0,*5A
1491609826.83,58891,9.63,72916.3,-6.79,-7.57,-7.57,0,*55
1491609828.08,58892,9.63,72920.5,-6.79,-7.57,-7.49,0,*59
1491609829.3,58893,9.63,72920.5,-6.79,-7.49,-7.49,0,*57
1491609830.59,58894,9.63,72926.5,-6.79,-7.57,-7.57,0,*50
1491609831.81,58895,9.63,72926.0,-6.79,-7.49,-7.49,0,*51
1491609833.04,58896,9.63,72920.8,-6.77,-7.53,-7.43,0,*5D
1491609834.32,58897,9.63,72926.8,-6.79,-7.57,-7.57,0,*53
1491609835.57,58898,9.63,72926.8,-6.79,-7.49,-7.43,0,*56
1491609836.82,58899,9.63,72924.5,-6.77,-7.43,-7.43,0,*53
1491609838.07,58900,9.63,72922.8,-6.77,-7.39,-7.43,0,*5F
1491609839.34,58901,9.63,72920.3,-6.75,-7.39,-7.39,0,*51
1491609840.59,58902,9.63,72924.5,-6.77,-7.43,-7.39,0,*5D
1491609841.83,58903,9.63,72924.3,-6.77,-7.39,-7.39,0,*51
1491609843.08,58904,9.63,72922.0,-6.77,-7.39,-7.31,0,*5E
1491609844.33,58905,9.63,72922.8,-6.77,-7.43,-7.39,0,*5A
1491609845.58,58906,9.63,72924.0,-6.77,-7.43,-7.43,0,*54
1491609846.82,58907,9.63,72920.5,-6.77,-7.39,-7.39,0,*55
1491609848.07,58908,9.63,72912.0,-6.77,-7.39,-7.43,0,*57
1491609849.33,58909,9.63,72914.5,-6.77,-7.43,-7.43,0,*5B
1491609850.55,58910,9.63,72914.3,-6.79,-7.49,-7.49,0,*5D
1491609851.8,58911,9.63,72914.0,-6.77,-7.43,-7.39,0,*5F
1491609853.05,58912,9.63,72926.0,-6.77,-7.43,-7.43,0,*51
1491609854.33,58913,9.69,72924.0,-6.75,-7.39,-7.43,0,*5F
1491609855.61,58914,9.69,72924.0,-6.75,-7.43,-7.43,0,*55
1491609856.85,58915,9.63,72922.8,-6.77,-7.39,-7.39,0,*56
1491609858.1,58916,9.63,72926.5,-6.77,-7.43,-7.39,0,*58
1491609859.36,58917,9.63,72928.8,-6.77,-7.43,-7.43,0,*54
1491609860.61,58918,9.63,72926.3,-6.77,-7.43,-7.39,0,*56
1491609861.85,58919,9.63,72924.3,-6.77,-7.39,-7.39,0,*5A
1491609863.09,58920,9.63,72926.0,-6.77,-7.39,-7.39,0,*50
1491609864.36,58921,9.63,72922.3,-6.75,-7.39,-7.39,0,*53
1491609865.63,58922,9.63,72920.8,-6.75,-7.39,-7.39,0,*50
1491609866.87,58923,9.63,72928.3,-6.77,-7.39,-7.39,0,*53
1491609868.12,58924,9.63,72928.8,-6.77,-7.31,-7.39,0,*5C
1491609869.37,58925,9.63,72930.0,-6.77,-7.31,-7.39,0,*5D
1491609870.61,58926,9.63,72930.5,-6.77,-7.39,-7.39,0,*56
1491609871.85,58927,9.63,72928.8,-6.77,-7.39,-7.31,0,*5F
1491609873.13,58928,9.63,72932.0,-6.75,-7.43,-7.39,0,*57
1491609874.37,58929,9.63,72938.3,-6.77,-7.39,-7.39,0,*59
1491609875.62,58930,9.63,72940.3,-6.77,-7.39,-7.31,0,*59
1491609876.89,58931,9.63,72936.0,-6.75,-7.39,-7.39,0,*52
1491609878.13,58932,9.63,72934.0,-6.77,-7.31,-7.39,0,*5B
1491609879.41,58933,9.63,72942.0,-6.75,-7.31,-7.39,0,*58
1491609880.65,58934,9.63,72944.3,-6.77,-7.39,-7.39,0,*55
1491609881.9,58935,9.63,72934.0,-6.77,-7.27,-7.27,0,*54
1491609883.17,58936,9.63,72936.0,-6.75,-7.39,-7.31,0,*5D
1491609884.45,58937,9.63,72938.8,-6.75,-7.43,-7.31,0,*51
1491609885.72,58938,9.63,72932.8,-6.75,-7.43,-7.39,0,*56
1491609886.99,58939,9.63,72942.0,-6.75,-7.39,-7.39,0,*5A
1491609888.24,58940,9.63,72940.0,-6.77,-7.39,-7.39,0,*56
1491609889.51,58941,9.63,72942.0,-6.75,-7.39,-7.39,0,*55
1491609890.78,58942,9.63,72934.5,-6.75,-7.39,-7.39,0,*56
1491609892.02,58943,9.63,72940.3,-6.77,-7.39,-7.39,0,*55
1491609893.27,58944,9.63,72944.8,-6.77,-7.31,-7.31,0,*52
1491609894.54,58945,9.63,72948.0,-6.75,-7.39,-7.27,0,*5E
1491609895.78,58946,9.63,72942.5,-6.77,-7.39,-7.39,0,*50
1491609897.05,58947,9.63,72932.0,-6.75,-7.39,-7.31,0,*5B
1491609898.32,58948,9.63,72932.3,-6.75,-7.39,-7.39,0,*5C
1491609899.59,58949,9.69,72942.8,-6.75,-7.39,-7.39,0,*5D
1491609900.88,58950,9.63,72940.5,-6.75,-7.43,-7.43,0,*55
1491609902.12,58951,9.63,72944.0,-6.77,-7.39,-7.39,0,*56
1491609903.39,58952,9.63,72944.8,-6.75,-7.39,-7.39,0,*57
1491609904.67,58953,9.63,72942.8,-6.75,-7.43,-7.39,0,*5B
1491609905.94,58954,9.63,72946.5,-6.75,-7.39,-7.39,0,*51
1491609907.21,58955,9.63,72950.3,-6.75,-7.39,-7.31,0,*58
1491609908.45,58956,9.63,72952.0,-6.77,-7.39,-7.31,0,*59
1491609909.73,58957,9.63,72954.0,-6.75,-7.31,-7.39,0,*5A
1491609911.0,58958,9.63,72958.5,-6.75,-7.31,-7.39,0,*55
1491609912.27,58959,9.63,72958.0,-6.75,-7.39,-7.31,0,*54
1491609913.51,58960,9.63,72956.5,-6.77,-7.39,-7.31,0,*5C
1491609914.79,58961,9.63,72964.0,-6.75,-7.31,-7.39,0,*5F
1491609916.06,58962,9.63,72962.3,-6.75,-7.39,-7.39,0,*54
1491609917.3,58963,9.63,72968.3,-6.77,-7.39,-7.39,0,*57
1491609918.58,58964,9.63,72960.3,-6.75,-7.43,-7.43,0,*52
1491609919.83,58965,9.63,72962.3,-6.77,-7.39,-7.43,0,*5C
1491609921.11,58966,9.63,72962.5,-6.75,-7.43,-7.43,0,*50
1491609922.39,58967,9.63,72964.5,-6.75,-7.43,-7.39,0,*5C
1491609923.66,58968,9.63,72960.3,-6.75,-7.39,-7.39,0,*5E
1491609924.94,58969,9.63,72944.8,-6.75,-7.43,-7.39,0,*52
1491609926.22,58970,9.63,72942.3,-6.75,-7.43,-7.43,0,*57
1491609927.5,58971,9.63,72934.5,-6.75,-7.43,-7.43,0,*56
1491609928.78,58972,9.63,72938.3,-6.75,-7.43,-7.43,0,*55
1491609930.05,58973,9.63,72932.0,-6.75,-7.39,-7.39,0,*54
1491609931.3,58974,9.63,72946.3,-6.77,-7.39,-7.43,0,*5C
1491609932.57,58975,9.63,72962.3,-6.75,-7.39,-7.39,0,*52
1491609933.82,58976,9.63,72976.0,-6.77,-7.39,-7.43,0,*5E
1491609935.09,58977,9.63,72956.8,-6.75,-7.43,-7.39,0,*5D
1491609936.37,58978,9.63,72976.5,-6.75,-7.43,-7.43,0,*5F
1491609937.65,58979,9.63,72978.0,-6.75,-7.43,-7.39,0,*53
1491609938.93,58980,9.63,72974.5,-6.75,-7.43,-7.43,0,*58
1491609940.19,58981,9.63,72978.8,-6.77,-7.43,-7.43,0,*5B
1491609941.47,58982,9.63,72984.3,-6.75,-7.43,-7.43,0,*5A
1491609942.75,58983,9.63,72972.3,-6.75,-7.43,-7.57,0,*5E
1491609943.94,58984,9.63,72952.0,-6.77,-7.53,-7.53,0,*5E
1491609945.23,58985,9.63,72928.3,-6.75,-7.57,-7.57,0,*5D
1491609946.48,58986,9.63,72930.8,-6.77,-7.57,-7.57,0,*5C
1491609947.7,58987,9.63,72924.8,-6.77,-7.57,-7.53,0,*59
1491609948.96,58988,9.63,72930.0,-6.75,-7.53,-7.57,0,*54
1491609950.24,58989,9.63,72934.5,-6.75,-7.57,-7.57,0,*51
1491609951.5,58990,9.63,72936.3,-6.77,-7.57,-7.57,0,*5B
1491609952.72,58991,9.63,72938.0,-6.77,-7.53,-7.57,0,*5E
1491609953.98,58992,9.69,72942.8,-6.77,-7.57,-7.57,0,*59
1491609955.17,58993,9.63,72934.5,-6.77,-7.53,-7.53,0,*58
1491609956.36,58994,9.63,72930.0,-6.77,-7.53,-7.53,0,*5F
1491609957.58,58995,9.63,72924.3,-6.77,-7.43,-7.53,0,*5F
1491609958.8,58996,9.63,72922.3,-6.77,-7.43,-7.53,0,*5C
1491609960.06,58997,9.63,72924.0,-6.77,-7.43,-7.43,0,*5C
1491609961.31,58998,9.63,72920.8,-6.77,-7.43,-7.43,0,*53
1491609962.56,58999,9.63,72920.5,-6.77,-7.39,-7.43,0,*5F
1491609963.81,59000,9.63,72922.3,-6.77,-7.43,-7.39,0,*57
1491609965.09,59001,9.63,72920.5,-6.75,-7.43,-7.39,0,*54
1491609966.33,59002,9.63,72916.5,-6.75,-7.43,-7.53,0,*5B
1491609967.56,59003,9.63,72906.3,-6.75,-7.53,-7.53,0,*5B
1491609968.75,59004,9.63,72902.5,-6.77,-7.53,-7.53,0,*5E
1491609970.01,59005,9.63,72890.3,-6.77,-7.57,-7.57,0,*5F
1491609971.26,59006,9.63,72888.3,-6.75,-7.53,-7.57,0,*5A
1491609972.45,59007,9.63,72906.3,-6.77,-7.53,-7.53,0,*5D
1491609973.67,59008,9.63,72904.3,-6.77,-7.43,-7.53,0,*53
1491609974.92,59009,9.63,72904.8,-6.77,-7.39,-7.43,0,*5E
1491609976.17,59010,9.63,72928.0,-6.77,-7.43,-7.43,0,*5B
1491609977.43,59011,9.63,72926.5,-6.77,-7.43,-7.43,0,*5A
1491609978.68,59012,9.63,72936.8,-6.77,-7.43,-7.43,0,*59
1491609979.94,59013,9.63,72928.3,-6.77,-7.43,-7.43,0,*58
1491609981.16,59014,9.63,72924.0,-6.77,-7.53,-7.57,0,*5B
1491609982.42,59015,9.63,72930.8,-6.77,-7.57,-7.57,0,*5E
1491609983.64,59016,9.63,72930.3,-6.77,-7.53,-7.57,0,*59
1491609984.9,59017,9.63,72932.5,-6.77,-7.57,-7.57,0,*5C
1491609986.18,59018,9.63,72924.0,-6.79,-7.61,-7.61,0,*5D
1491609987.46,59019,9.63,72928.3,-6.79,-7.61,-7.61,0,*5C
1491609988.74,59020,9.63,72926.0,-6.75,-7.57,-7.57,0,*5A
1491609990.0,59021,9.63,72920.8,-6.77,-7.57,-7.57,0,*59
1491609991.25,59022,9.63,72924.8,-6.75,-7.57,-7.53,0,*5C
1491609992.44,59023,9.63,72918.3,-6.77,-7.53,-7.53,0,*5B
1491609993.72,59024,9.69,72912.0,-6.79,-7.61,-7.61,0,*52
1491609994.95,59025,9.63,72906.0,-6.77,-7.43,-7.53,0,*5C
1491609996.17,59026,9.63,72906.5,-6.77,-7.57,-7.53,0,*5A
1491609997.4,59027,9.63,72908.8,-6.77,-7.53,-7.43,0,*5E
1491609998.65,59028,9.63,72918.3,-6.77,-7.43,-7.43,0,*50
1491609999.91,59029,9.63,72918.0,-6.77,-7.43,-7.43,0,*51
1491610001.13,59030,9.63,72908.0,-6.79,-7.49,-7.49,0,*57
1491610002.35,59031,9.63,72902.5,-6.77,-7.53,-7.43,0,*59
1491610003.58,59032,9.63,72898.3,-6.77,-7.53,-7.43,0,*5A
1491610004.81,59033,9.63,72900.3,-6.77,-7.53,-7.43,0,*5B
1491610006.06,59034,9.63,72904.0,-6.77,-7.43,-7.43,0,*5D
1491610007.31,59035,9.63,72900.8,-6.77,-7.39,-7.43,0,*51
1491610008.56,59036,9.63,72898.5,-6.77,-7.39,-7.43,0,*52
1491610009.8,59037,9.69,72904.5,-6.77,-7.39,-7.39,0,*5E
1491610011.04,59038,9.63,72902.3,-6.77,-7.39,-7.39,0,*51
1491610012.29,59039,9.63,72900.5,-6.77,-7.39,-7.39,0,*50
1491610013.53,59040,9.63,72900.5,-6.77,-7.39,-7.39,0,*5E
1491610014.78,59041,9.63,72900.0,-6.77,-7.43,-7.39,0,*52
1491610016.03,59042,9.63,72904.8,-6.77,-7.43,-7.39,0,*51
1491610017.28,59043,9.63,72906.8,-6.77,-7.43,-7.39,0,*50
1491610018.56,59044,9.63,72910.0,-6.75,-7.43,-7.43,0,*58
1491610019.79,59045,9.63,72912.5,-6.77,-7.53,-7.43,0,*5A
1491610021.04,59046,9.63,72912.3,-6.77,-7.43,-7.43,0,*58
1491610022.29,59047,9.63,72912.3,-6.75,-7.43,-7.53,0,*5A
1491610023.52,59048,9.63,72912.5,-6.77,-7.53,-7.43,0,*57
1491610024.74,59049,9.63,72914.8,-6.77,-7.53,-7.43,0,*56
1491610025.97,59050,9.63,72914.0,-6.77,-7.53,-7.57,0,*5B
1491610027.16,59051,9.69,72916.0,-6.77,-7.53,-7.53,0,*5E
1491610028.39,59052,9.63,72910.0,-6.77,-7.57,-7.53,0,*59
1491610029.61,59053,9.63,72906.0,-6.77,-7.53,-7.57,0,*58
1491610030.84,59054,9.69,72912.3,-6.77,-7.57,-7.53,0,*5F
1491610032.09,59055,9.63,72906.0,-6.77,-7.57,-7.57,0,*5A
1491610033.28,59056,9.63,72904.3,-6.77,-7.53,-7.53,0,*59
1491610034.48,59057,9.69,72902.3,-6.77,-7.53,-7.53,0,*58
1491610035.67,59058,9.63,72856.8,-6.77,-7.53,-7.53,0,*57
1491610036.89,59059,9.63,72860.0,-6.77,-7.43,-7.53,0,*57
1491610038.09,59060,9.63,72872.8,-6.77,-7.53,-7.53,0,*5C
1491610039.37,59061,9.69,72888.0,-6.75,-7.43,-7.43,0,*5F
1491610040.65,59062,9.69,72892.0,-6.75,-7.43,-7.43,0,*5C
1491610041.9,59063,9.69,72892.5,-6.77,-7.39,-7.43,0,*52
1491610043.15,59064,9.63,72884.8,-6.77,-7.43,-7.43,0,*58
1491610044.4,59065,9.69,72882.3,-6.77,-7.39,-7.43,0,*54
1491610045.68,59066,9.69,72902.3,-6.75,-7.43,-7.39,0,*55
1491610046.93,59067,9.63,72940.0,-6.77,-7.43,-7.39,0,*56
1491610048.18,59068,9.69,72928.8,-6.77,-7.43,-7.43,0,*54
1491610049.43,59069,9.63,72930.5,-6.77,-7.43,-7.43,0,*55
1491610050.69,59070,9.63,72928.8,-6.77,-7.43,-7.57,0,*58
1491610051.91,59071,9.69,72926.0,-6.77,-7.43,-7.53,0,*5D
1491610053.1,59072,9.63,72936.5,-6.77,-7.53,-7.53,0,*5F
1491610054.32,59073,9.63,72934.0,-6.77,-7.53,-7.57,0,*5A
1491610055.58,59074,9.63,72924.8,-6.75,-7.57,-7.53,0,*5F
1491610056.83,59075,9.69,72924.5,-6.77,-7.57,-7.57,0,*58
1491610058.12,59076,9.63,72918.5,-6.75,-7.57,-7.57,0,*59
1491610059.37,59077,9.63,72918.5,-6.77,-7.57,-7.57,0,*5A
1491610060.56,59078,9.63,72916.0,-6.77,-7.53,-7.53,0,*55
1491610061.79,59079,9.69,72912.5,-6.77,-7.53,-7.57,0,*50
1491610063.04,59080,9.69,72910.8,-6.77,-7.57,-7.57,0,*52
1491610064.33,59081,9.63,72912.3,-6.79,-7.61,-7.61,0,*5D
1491610065.6,59082,9.63,72910.5,-6.79,-7.61,-7.57,0,*5B
1491610066.88,59083,9.63,72908.0,-6.79,-7.61,-7.57,0,*5A
1491610068.11,59084,9.63,72908.0,-6.77,-7.43,-7.53,0,*57
1491610069.35,59085,9.69,72904.8,-6.77,-7.43,-7.39,0,*5A
1491610070.6,59086,9.63,72892.0,-6.77,-7.39,-7.39,0,*54
1491610071.82,59087,9.63,72886.0,-6.79,-7.49,-7.49,0,*5B
1491610073.1,59088,9.69,72888.3,-6.79,-7.43,-7.43,0,*54
1491610074.35,59089,9.63,72898.3,-6.79,-7.43,-7.49,0,*5F
1491610075.6,59090,9.69,72916.5,-6.77,-7.43,-7.39,0,*5E
1491610076.85,59091,9.69,72920.0,-6.77,-7.43,-7.39,0,*5F
1491610078.1,59092,9.63,72914.8,-6.77,-7.43,-7.39,0,*5C
1491610079.35,59093,9.63,72906.5,-6.77,-7.43,-7.43,0,*50
1491610080.61,59094,9.63,72900.0,-6.77,-7.43,-7.43,0,*57
1491610081.88,59095,9.63,72908.8,-6.75,-7.39,-7.43,0,*59
1491610083.13,59096,9.63,72910.8,-6.77,-7.39,-7.39,0,*55
1491610084.37,59097,9.63,72910.0,-6.77,-7.39,-7.43,0,*59
1491610085.62,59098,9.69,72912.8,-6.77,-7.39,-7.39,0,*5B
1491610086.86,59099,9.63,72904.5,-6.77,-7.39,-7.39,0,*5A
1491610088.1,59100,9.63,72906.8,-6.77,-7.39,-7.39,0,*5B
1491610089.35,59101,9.63,72918.0,-6.77,-7.39,-7.39,0,*5A
1491610090.6,59102,9.69,72920.0,-6.77,-7.43,-7.39,0,*54
1491610091.85,59103,9.63,72908.8,-6.77,-7.43,-7.43,0,*58
1491610093.1,59104,9.69,72902.3,-6.77,-7.43,-7.39,0,*52
1491610094.32,59105,9.69,72886.0,-6.77,-7.43,-7.53,0,*5F
1491610095.58,59106,9.69,72894.0,-6.77,-7.57,-7.57,0,*5D
1491610096.8,59107,9.63,72876.0,-6.77,-7.53,-7.57,0,*58
1491610098.02,59108,9.69,72868.8,-6.77,-7.53,-7.57,0,*57
1491610099.25,59109,9.69,72878.8,-6.77,-7.43,-7.53,0,*53
1491610100.47,59110,9.69,72886.0,-6.77,-7.43,-7.53,0,*5B
1491610101.72,59111,9.69,72888.5,-6.77,-7.57,-7.43,0,*5E
1491610102.95,59112,9.63,72886.0,-6.77,-7.53,-7.43,0,*59
1491610104.23,59113,9.63,72898.5,-6.75,-7.43,-7.39,0,*56
1491610105.48,59114,9.69,72926.3,-6.77,-7.43,-7.43,0,*5E
1491610106.73,59115,9.63,72928.5,-6.77,-7.43,-7.39,0,*52
1491610107.98,59116,9.69,72928.8,-6.77,-7.39,-7.39,0,*5C
1491610109.22,59117,9.69,72944.0,-6.77,-7.39,-7.39,0,*5D
1491610110.46,59118,9.69,72926.3,-6.77,-7.39,-7.31,0,*5A
1491610111.7,59119,9.63,72922.3,-6.77,-7.39,-7.39,0,*53
1491610112.95,59120,9.69,72940.5,-6.77,-7.39,-7.39,0,*59
1491610114.19,59121,9.63,72924.5,-6.77,-7.39,-7.39,0,*58
1491610115.47,59122,9.63,72940.0,-6.75,-7.43,-7.39,0,*54
1491610116.71,59123,9.69,72942.0,-6.77,-7.39,-7.39,0,*5A
1491610117.99,59124,9.69,72960.0,-6.75,-7.43,-7.43,0,*5F
1491610119.25,59125,9.69,72950.3,-6.77,-7.43,-7.43,0,*5C
1491610120.5,59126,9.63,72948.5,-6.77,-7.43,-7.43,0,*5F
1491610121.78,59127,9.69,72950.3,-6.75,-7.43,-7.39,0,*51
1491610123.05,59128,9.63,72934.8,-6.75,-7.39,-7.43,0,*5E
1491610124.32,59129,9.69,72938.0,-6.75,-7.39,-7.39,0,*52
1491610125.61,59130,9.69,72932.5,-6.75,-7.43,-7.43,0,*5A
1491610126.88,59131,9.69,72928.8,-6.75,-7.39,-7.39,0,*5B